GPS BIIR-17M

Last updated on Sat Jun 27 2026 00:02:55 GMT+0000 (Coordinated Universal Time)

1 32260U 07047A 26177.19961716 -.00000076 00000+0 00000+0 0 9996 2 32260 54.1016 79.6941 0167104 87.5760 274.3492 2.00554914136999
UTC large
Height (km)
Speed (km/s)
/
Latitude / Longitude
Inclination (degrees)
Orbital Period (minutes)
Azimuth
Elevation
Range (km)
Doppler Factor

Next 0 passes for location: London (51.5072 / 0.1276)

No passes found over London.
GPS BIIR-17M